Terug naar catalogus

COSMOS 1030 DEB

ActiefHEO
NORAD 39447·DEBRIS·🇷🇺 Russia

Gelanceerd Sep 6, 1978 vanaf Plesetsk Cosmodrome

Loading…

Volgende Passages (komende 24 uur)

TLE

VersSource: Space-Track

Epoch: Sep 12, 2026, 10:50 UTC

1 39447U 78083T   26255.45151599  .00000780  00000-0  00000-0 0  9997
2 39447  63.7541 179.0755 7042164   4.2188 359.4066  2.00343104 84491

Volg COSMOS 1030 DEB in realtime met AllMySat

Download on the App Store